STARLINK-32134, 60300

Orbit data source: Space-Track

STARLINK-32134, 60300 is a payload satellite owned by SpaceX/Seattle (US) in LEO that was launched on Sun, 28 Jul 2024 UTC via an FALCON 9 launch vehicle from the Air Force Eastern Test Range (AFETR). Payload-class satellites include a variety of spacecraft equipped with specific instruments for various scientific and technological missions. These include communications satellites like Starlink; space stations such as the ISS; scientific satellites like the Hubble; Earth observation satellites from companies like Planet Labs, Umbra, and HawkEye 360; GPS; miniature CubeSats for education and research; and military/defense satellites.

Loading next visibility...
Identifier
60300, 2024-132Y
Orbit
LEO
Country
Flag of USUS
Related business
Manufacturer
SpaceX/Seattle
Mission
Operational Commercial Communications
Bus & Motor
STARLINK V2M, Unknown motor
Mass
730 kg wet, ~700 kg dry
Launch date (UTC)
2024-07-28 (2 years ago)
Launch vehicle
FALCON 9
Launch site
Air Force Eastern Test Range (AFETR)
Object type
Payload
Rocket body
Debris
Shape & HBR
Box + 2 Pan, 17.7 m
Radar Cross Section
33.884 m², Large (>1 m²)

Expand to show TLE details & history
Last TLE update: 9 hours ago

TLE from 9 hours ago
0 STARLINK-32134
1 60300U 24132Y   26105.74261140  .00000175  00000-0  18020-4 0  9998
2 60300  53.1603 240.3014 0000725  94.1377 265.9707 15.30193146 97238
Epoch: 2026-04-15T17:49Z
TLE epoch observation values (Epoch: 2026-04-15T17:49:21.624Z)
Latitude
-0.00002°
Longitude
129.06115°
Altitude
476.17 km
Speed
7.629 km/s
True Right ascension
16h 01m 12s
True Declination
0° 00' 00"
Sunlit
Object was in full shadow at epoch
Visualization orbit readout
Latitude
Unknown
Longitude
Unknown
Altitude
Unknown
Speed
Unknown
Apparent Right ascension
Unknown
Apparent Declination
Unknown
Sunlit
N/A
Visualization observer readout
Local Sidereal Time
09:53:48
Azimuth
Unknown
Elevation
Unknown
Doppler factor
Unknown
Orbital elements
Apogee altitude
475.989 km
Perigee altitude
474.995 km
Semi-major axis
6,853.629 km
Eccentricity
0.00007
Inclination
53.1603°
RAAN
240.3014°
Arg. of periapsis
94.1377°
True anomaly
265.96241°
Mean anomaly
265.9707°
Eccentric anomaly
265.96656°
Mean motion
3.82527 °/min
Orbital period
94.11 mins
BSTAR
0.00001802
Loading maneuver chart data...
Computing Atmospheric mass density...
Loading historical data...
Loading historical data...
Loading historical data...
Loading historical data...
Loading historical data...
Loading historical data...
Loading historical data...

Documentation

Showing up to 5 results
|